Wind_Speed
15 9 13 13 16 18 24 23 11 14 15 15 13 15 19 24 22 22 21 19 19 20 19 17 16 17 17 15 15 13 11 13 8 9 11 12 11 7 10 12 14 13 14
10 11 11 13 15 19 21 23 13 12 13 13 13 17 22 25 25 25 32 32 29 27 24 21 19 19 14 13 14 11 11 14 7 5 6 6 11 17 19 12 12 15 11
9 7 11 13 15 17 20 23 15 12 14 15 16 20 22 21 19 23 31 33 35 37 34 27 21 21 21 18 16 14 11 9 11 10 4 5 5 8 8 9 9 9 9
8 8 11 13 14 13 17 20 18 13 16 16 15 20 19 21 26 31 33 32 35 37 37 37 32 26 24 22 21 20 18 14 7 3 1 4 7 8 9 11 11 10 9
7 5 7 10 13 13 18 18 20 12 13 17 16 19 20 21 23 25 29 29 29 32 34 35 36 30 28 28 28 28 24 21 18 13 8 5 4 5 7 5 8 8 11
11 5 4 6 10 12 15 17 21 16 12 15 17 17 20 21 17 19 22 23 25 27 28 25 29 29 29 26 24 21 24 19 15 17 16 14 11 8 5 3 2 7 7
15 8 3 5 5 10 13 14 18 15 9 9 10 16 15 17 17 17 18 19 21 20 21 23 26 27 28 30 30 28 23 24 21 15 14 13 17 22 15 8 3 4 5
17 9 5 2 4 8 11 13 15 18 13 9 10 12 13 11 13 13 16 19 19 19 18 21 24 25 23 23 22 21 25 22 22 23 14 12 13 17 19 19 9 3 4
20 13 5 3 4 5 9 12 13 15 13 7 9 7 9 10 12 11 11 12 15 18 15 15 17 19 21 22 22 21 24 23 21 19 19 16 15 13 17 16 13 11 5
17 17 5 5 2 5 6 10 10 13 14 9 6 6 8 9 10 10 9 12 15 16 17 16 16 16 19 16 17 17 19 25 22 27 18 16 19 19 11 11 16 15 17
19 16 5 4 5 4 2 7 9 11 12 14 7 7 9 1 1 4 7 11 13 13 16 16 15 13 15 18 16 19 16 20 24 33 24 17 11 14 14 9 18 12 24
16 15 6 2 6 7 3 3 6 7 5 11 13 7 8 15 10 5 2 5 8 8 9 12 16 16 12 14 18 21 20 19 24 29 31 16 15 18 12 8 9 13 20
12 12 8 2 7 10 7 5 2 2 1 5 11 13 6 3 4 3 3 4 5 5 8 11 14 13 13 13 14 19 19 21 24 29 30 24 11 14 12 16 3 8 12
10 10 6 5 5 12 12 8 7 4 4 6 9 9 12 5 4 4 4 4 6 5 3 7 12 13 14 13 16 18 20 20 23 23 28 24 14 10 16 18 12 12 16
12 12 8 3 4 12 14 11 7 5 5 3 6 8 9 8 4 5 6 4 4 3 1 6 10 10 13 12 15 18 20 21 22 16 25 25 17 13 20 21 17 19 16
12 13 10 3 2 9 15 12 7 8 7 8 8 8 8 8 6 3 2 2 4 4 5 4 5 7 10 14 12 17 22 20 19 14 21 22 17 14 19 23 19 16 9
15 14 8 4 2 3 14 14 10 8 10 11 9 9 6 4 5 4 1 3 3 4 5 2 4 7 7 12 9 15 22 25 17 17 18 22 16 17 20 22 23 17 10
17 17 12 6 2 3 11 15 14 9 10 9 10 7 4 6 5 2 3 4 5 4 3 4 5 4 4 8 11 14 19 24 18 14 18 21 16 16 21 26 26 22 17
18 19 17 13 6 2 5 18 16 14 11 9 6 4 1 3 3 1 3 3 4 3 2 4 0 3 2 8 11 14 19 23 19 12 15 24 22 19 20 22 28 27 22
19 21 20 18 12 8 6 20 19 16 14 10 8 3 2 2 1 3 6 7 2 1 5 4 3 2 1 5 8 11 16 19 17 13 12 18 22 22 18 19 26 30 26
17 23 22 21 17 14 10 17 23 21 16 13 11 6 3 6 7 3 3 4 9 6 6 4 2 4 4 1 3 14 15 14 14 13 13 14 16 20 22 17 25 28 30
17 22 25 25 21 17 13 14 24 22 20 16 14 8 8 8 6 5 6 4 5 6 8 4 4 1 5 2 1 7 16 11 8 13 15 13 14 16 20 21 20 24 28
15 20 23 28 26 22 17 18 19 23 23 21 12 16 11 14 12 8 9 8 6 7 7 7 5 4 4 2 2 3 11 9 8 9 12 11 11 14 16 21 21 20 24
15 20 23 27 29 27 22 21 22 22 21 23 22 17 15 14 17 14 11 10 10 9 7 8 7 2 6 5 1 5 7 6 7 6 9 9 9 11 12 17 19 15 21
11 16 22 23 28 29 25 23 25 21 22 24 22 21 23 23 26 20 17 17 14 14 11 11 12 16 13 9 8 2 8 9 5 5 6 5 8 8 12 14 15 18 16
9 13 18 24 25 29 32 32 32 29 26 23 24 26 35 35 34 30 27 23 19 17 15 14 15 12 12 13 12 7 11 14 6 4 4 2 5 7 7 11 13 15 13
Wind_Direction
38 80 71 42 26 40 30 22 53 74 62 60 61 61 66 62 68 66 65 68 72 70 74 78 82 84 86 87 108 114 135 127 174 190 199 202 213 240 246 260 248 246 239
46 70 64 44 38 45 36 31 53 76 75 67 67 65 72 71 76 62 74 75 72 72 78 78 80 82 82 84 90 101 149 166 174 215 196 217 227 240 245 257 249 249 245
5 62 59 49 49 48 40 33 56 67 85 80 73 76 81 69 67 78 78 76 75 73 74 76 83 91 84 83 82 83 95 129 196 222 250 274 271 277 262 253 253 247 242
15 54 49 60 46 52 51 36 49 67 89 87 87 81 77 74 86 88 82 75 72 74 73 73 77 85 86 85 83 83 79 82 99 121 225 260 271 269 276 268 253 255 238
341 350 33 51 49 40 43 45 45 61 103 92 97 94 82 92 90 79 75 71 71 70 69 66 66 73 75 75 72 75 75 78 77 68 58 29 347 301 306 318 242 241 220
349 312 334 21 38 30 38 45 43 50 113 104 93 104 97 98 96 77 69 72 71 75 73 53 64 69 73 73 67 79 70 64 68 69 64 59 46 20 6 349 238 220 232
12 339 309 351 32 34 40 41 33 50 88 138 101 105 108 105 103 90 72 73 63 59 62 67 69 77 76 71 66 71 68 58 53 44 37 28 28 33 32 26 7 204 214
21 356 315 358 45 37 43 46 51 40 57 108 120 115 118 111 110 87 71 72 63 58 63 68 73 77 72 73 67 50 58 52 46 42 38 41 33 12 23 31 30 337 221
19 13 313 317 64 66 54 56 64 42 54 103 137 124 104 122 116 101 76 51 56 64 63 75 73 71 66 66 68 59 48 41 38 35 38 43 41 22 32 27 29 30 349
9 3 336 266 109 98 61 61 60 54 55 72 126 157 128 100 105 104 71 65 73 76 65 66 67 56 57 55 51 44 43 36 33 29 37 43 41 24 22 30 17 9 12
335 350 342 225 225 135 105 66 64 50 56 52 81 123 136 95 305 127 70 82 78 67 66 54 53 51 44 49 50 36 38 35 33 26 26 45 49 41 4 20 357 344 335
325 343 335 146 194 174 127 88 99 101 37 53 49 75 153 176 202 235 139 93 74 57 41 46 50 40 29 35 34 31 35 35 29 26 18 17 25 37 25 21 331 305 343
311 332 345 348 162 164 160 140 83 92 52 63 56 49 76 133 182 220 174 86 94 53 55 45 37 29 21 17 28 28 31 31 34 23 12 20 14 6 3 342 291 260 285
294 321 348 321 179 163 170 169 126 73 83 105 69 56 47 94 83 112 110 118 106 111 65 20 20 16 19 16 26 22 24 23 21 14 4 8 14 358 2 354 330 296 283
275 291 316 358 268 177 172 178 159 132 125 105 87 64 34 51 122 112 110 104 82 59 298 301 354 26 18 20 26 22 19 22 25 22 344 357 10 20 8 6 359 315 303
274 270 314 72 77 172 182 184 170 138 113 115 89 55 10 19 48 138 191 267 284 315 302 311 356 15 10 9 23 25 19 21 35 3 348 1 7 21 3 10 1 342 308
260 249 282 298 28 150 185 186 188 161 130 115 106 62 69 9 34 67 69 2 9 345 326 332 344 335 15 5 20 22 18 14 14 10 359 359 13 21 16 16 16 11 14
249 239 231 246 308 118 197 193 194 193 158 134 118 113 73 12 65 142 105 79 58 38 57 59 1 341 7 5 15 3 1 7 15 11 19 18 25 18 18 23 21 21 23
246 232 232 234 237 203 217 193 196 191 188 165 143 107 95 76 45 120 129 110 106 67 54 55 250 42 2 17 15 359 354 356 6 30 26 26 24 20 19 19 27 27 26
237 229 225 232 240 213 233 200 193 203 214 207 188 207 197 208 36 228 231 228 184 39 27 69 97 45 141 30 4 355 355 348 3 23 21 17 15 22 27 25 27 31 33
228 225 224 224 232 223 226 209 205 200 214 217 223 216 233 231 225 334 287 232 239 232 294 355 315 202 133 61 347 22 0 349 2 7 14 8 22 19 24 26 28 32 37
225 223 217 218 223 224 222 229 213 208 212 227 235 231 225 230 220 234 245 266 259 254 241 266 255 300 164 177 307 324 5 356 10 25 20 31 34 21 31 33 28 32 39
233 228 223 220 222 226 231 240 228 217 217 223 211 239 237 231 223 238 264 250 244 232 252 249 253 281 187 194 50 5 346 329 356 5 7 21 33 35 32 37 36 39 41
253 236 232 228 227 226 226 237 235 228 221 224 224 233 233 221 237 243 238 249 256 246 244 251 237 306 275 231 167 62 6 340 6 359 11 23 30 33 30 34 35 40 46
253 252 246 241 234 229 230 231 230 228 228 227 224 207 207 226 235 232 229 237 238 244 240 240 226 242 271 230 236 218 285 324 341 14 9 36 33 26 34 35 29 36 37
279 254 243 243 245 238 241 238 237 239 237 234 234 214 208 224 237 245 243 247 238 248 246 248 228 236 247 237 227 233 254 290 277 335 345 9 20 12 15 25 26 26 34
Height
10983 10980 10980 10978 10976 10973 10970 10967 10963 10962 10963 10963 10962 10961 10960 10959 10957 10956 10954 10952 10950 10948 10946 10947 10946 10946 10947 10948 10949 10951 10952 10954 10955 10956 10956 10956 10957 10958 10958 10957 10957 10957 10958
10984 10983 10981 10980 10978 10975 10972 10969 10966 10966 10965 10965 10964 10964 10963 10962 10960 10959 10957 10955 10952 10950 10948 10948 10948 10949 10950 10951 10952 10952 10953 10955 10956 10956 10957 10957 10957 10957 10956 10955 10954 10954 10954
10986 10984 10982 10981 10978 10977 10974 10972 10970 10968 10967 10967 10967 10966 10967 10966 10963 10962 10961 10959 10957 10955 10952 10951 10951 10951 10952 10953 10953 10953 10954 10955 10956 10956 10956 10955 10955 10954 10954 10954 10953 10953 10952
10988 10985 10984 10983 10980 10979 10977 10975 10973 10971 10970 10970 10970 10969 10969 10968 10967 10966 10964 10963 10963 10960 10957 10956 10955 10954 10955 10955 10955 10954 10955 10956 10956 10956 10955 10954 10954 10953 10952 10951 10950 10951 10951
10989 10987 10985 10984 10982 10981 10980 10977 10975 10973 10973 10973 10973 10974 10973 10972 10972 10971 10969 10968 10967 10966 10963 10961 10960 10959 10959 10959 10958 10955 10956 10957 10957 10956 10956 10955 10953 10950 10949 10948 10948 10948 10949
10989 10987 10986 10986 10984 10982 10980 10979 10977 10975 10975 10975 10976 10976 10976 10975 10975 10974 10973 10972 10971 10970 10968 10966 10964 10964 10963 10963 10962 10960 10960 10959 10958 10957 10956 10955 10952 10950 10947 10947 10947 10947 10947
10989 10987 10986 10986 10986 10983 10981 10980 10979 10977 10976 10977 10978 10979 10979 10978 10978 10978 10977 10976 10974 10973 10972 10971 10969 10968 10967 10967 10966 10964 10963 10962 10960 10958 10956 10955 10953 10950 10948 10946 10946 10946 10946
10989 10987 10986 10986 10986 10985 10982 10982 10980 10979 10978 10978 10979 10980 10981 10981 10981 10980 10979 10979 10978 10977 10975 10974 10973 10972 10971 10970 10970 10969 10964 10964 10961 10959 10957 10954 10953 10951 10950 10947 10946 10946 10946
10991 10988 10987 10986 10986 10986 10984 10983 10983 10981 10980 10979 10980 10982 10982 10982 10982 10982 10981 10982 10981 10979 10978 10976 10976 10975 10974 10973 10972 10970 10968 10966 10963 10960 10958 10956 10953 10952 10951 10949 10947 10947 10946
10990 10989 10987 10985 10986 10986 10985 10984 10983 10983 10982 10981 10981 10982 10982 10983 10983 10984 10983 10984 10983 10982 10980 10979 10979 10978 10977 10976 10974 10972 10971 10967 10965 10962 10959 10956 10954 10951 10951 10950 10948 10946 10946
10990 10988 10985 10983 10983 10985 10986 10985 10984 10984 10983 10983 10982 10983 10984 10985 10985 10986 10986 10986 10985 10985 10984 10983 10981 10980 10979 10978 10976 10974 10972 10970 10967 10963 10960 10958 10955 10953 10951 10950 10948 10945 10943
10989 10987 10985 10982 10981 10983 10985 10985 10985 10986 10985 10984 10984 10984 10985 10986 10987 10987 10988 10988 10987 10986 10986 10985 10983 10982 10981 10980 10978 10976 10974 10971 10968 10964 10961 10958 10956 10952 10951 10949 10949 10945 10941
10987 10986 10985 10983 10980 10981 10983 10985 10985 10987 10986 10986 10985 10986 10985 10986 10987 10987 10989 10989 10990 10989 10988 10987 10985 10983 10982 10981 10980 10978 10976 10973 10969 10965 10962 10960 10956 10953 10951 10949 10946 10945 10943
10986 10985 10983 10983 10981 10979 10981 10983 10985 10985 10986 10986 10986 10986 10986 10986 10987 10988 10989 10990 10991 10991 10990 10988 10987 10985 10984 10983 10982 10980 10977 10974 10970 10967 10965 10961 10958 10954 10950 10946 10942 10939 10937
10983 10982 10981 10981 10981 10980 10980 10982 10985 10985 10986 10987 10986 10986 10987 10987 10987 10988 10989 10990 10991 10991 10991 10990 10988 10987 10986 10985 10984 10981 10978 10975 10971 10970 10967 10963 10959 10954 10950 10945 10941 10937 10933
10980 10980 10980 10979 10979 10980 10981 10981 10985 10986 10986 10987 10988 10987 10987 10988 10988 10987 10989 10989 10989 10990 10990 10990 10989 10988 10988 10987 10984 10982 10979 10976 10973 10973 10968 10963 10959 10955 10952 10946 10942 10936 10930
10975 10976 10977 10978 10977 10978 10979 10981 10983 10986 10986 10987 10987 10987 10988 10989 10989 10988 10989 10989 10988 10987 10987 10988 10988 10989 10989 10988 10985 10983 10980 10978 10975 10972 10969 10964 10961 10957 10952 10947 10942 10935 10928
10971 10972 10974 10975 10976 10974 10977 10980 10982 10984 10985 10986 10986 10987 10988 10988 10988 10988 10988 10989 10988 10987 10987 10988 10988 10989 10989 10989 10987 10984 10982 10981 10977 10973 10971 10966 10962 10959 10954 10949 10941 10935 10928
10965 10968 10970 10972 10973 10972 10974 10977 10981 10983 10984 10984 10985 10986 10987 10987 10988 10988 10989 10989 10990 10989 10988 10988 10989 10988 10989 10989 10988 10987 10985 10982 10979 10975 10972 10969 10965 10961 10956 10951 10945 10938 10932
10960 10962 10965 10968 10970 10971 10972 10974 10977 10981 10984 10984 10984 10984 10986 10986 10987 10987 10988 10989 10989 10990 10990 10989 10989 10989 10989 10989 10990 10988 10986 10983 10980 10977 10975 10972 10969 10964 10959 10955 10949 10943 10936
10954 10956 10960 10964 10966 10968 10969 10971 10973 10976 10980 10983 10984 10983 10985 10985 10986 10986 10987 10988 10988 10988 10989 10989 10989 10989 10989 10990 10990 10989 10986 10984 10981 10979 10977 10975 10971 10968 10963 10959 10953 10948 10941
10947 10950 10954 10959 10962 10964 10965 10969 10971 10973 10976 10980 10982 10982 10983 10984 10985 10985 10985 10986 10986 10987 10987 10987 10988 10988 10988 10989 10989 10988 10987 10986 10983 10981 10979 10976 10974 10972 10968 10963 10958 10954 10949
10943 10945 10949 10953 10957 10960 10962 10964 10967 10969 10971 10975 10979 10979 10981 10982 10983 10983 10985 10985 10985 10986 10986 10986 10987 10987 10987 10988 10988 10987 10987 10986 10984 10982 10981 10979 10977 10974 10971 10966 10962 10958 10954
10939 10940 10943 10946 10951 10954 10957 10960 10961 10963 10966 10969 10972 10975 10978 10978 10980 10981 10982 10983 10983 10983 10984 10985 10986 10987 10986 10986 10987 10987 10987 10986 10984 10983 10983 10981 10979 10976 10973 10970 10966 10963 10960
10934 10935 10937 10939 10943 10947 10951 10954 10956 10958 10960 10964 10967 10971 10974 10975 10976 10977 10978 10980 10980 10980 10982 10983 10983 10984 10985 10984 10985 10985 10985 10985 10984 10983 10982 10981 10979 10978 10975 10972 10970 10967 10964
10927 10928 10930 10932 10935 10938 10942 10945 10949 10951 10954 10957 10962 10970 10969 10969 10970 10972 10974 10976 10976 10977 10978 10979 10980 10981 10982 10982 10983 10983 10984 10984 10983 10983 10982 10981 10980 10978 10977 10975 10972 10970 10968